Date,TemperatureHighF,TemperatureAvgF,TemperatureLowF,DewpointHighF,DewpointAvgF,DewpointLowF,HumidityHigh,HumidityAvg,HumidityLow,PressureMaxIn,PressureMinIn,WindSpeedMaxMPH,WindSpeedAvgMPH,GustSpeedMaxMPH,PrecipitationSumIn
2013-4-1,72.9,62.5,52.3,56.5,44.4,34.3,97,58,27,29.87,29.73,15,3,20,0.01
2013-4-2,69.1,57.5,45.0,39.4,32.9,22.8,77,42,21,30.05,29.86,11,2,17,0.00
2013-4-3,59.2,53.3,47.9,34.6,26.3,18.6,49,35,26,30.17,30.00,15,4,20,0.00
2013-4-4,52.8,42.9,36.6,36.8,33.0,25.5,95,72,41,30.15,29.91,18,7,23,0.63
2013-4-5,66.6,50.0,34.4,45.7,38.6,30.0,98,69,27,29.96,29.83,12,3,18,0.00
2013-4-6,71.1,56.6,38.4,43.9,37.0,31.9,89,52,25,30.12,29.97,12,2,18,0.00
2013-4-7,72.2,58.8,41.4,51.6,44.8,37.3,91,62,39,30.15,30.01,9,2,14,0.00
2013-4-8,77.0,63.5,51.1,58.8,53.1,48.1,97,72,43,30.07,29.97,9,2,16,0.00
2013-4-9,81.9,66.9,51.5,61.1,55.9,50.1,97,71,43,30.10,29.99,9,1,13,0.00
2013-4-10,84.1,71.2,57.1,63.3,58.5,55.4,95,67,41,30.01,29.84,14,2,16,0.00
2013-4-11,81.3,68.6,56.8,66.6,61.4,55.3,97,79,54,29.87,29.62,11,2,14,0.00
2013-4-12,76.7,68.6,60.2,66.8,53.9,36.6,98,65,26,29.73,29.55,17,4,24,1.10
2013-4-13,77.6,62.1,42.9,49.6,42.1,38.0,94,52,25,29.92,29.73,9,1,12,0.00
2013-4-14,61.6,56.0,50.5,44.0,41.2,38.7,76,58,43,29.94,29.91,2,0,4,0.00
2013-4-15,71.8,61.4,55.1,59.9,57.2,53.6,98,87,63,30.10,29.85,11,6,11,0.20
2013-4-16,79.3,69.6,58.9,63.5,60.0,56.6,92,73,52,30.18,30.07,7,1,12,0.00
2013-4-17,82.6,67.2,59.5,65.6,61.7,58.2,98,84,52,30.14,30.02,9,1,18,0.29
2013-4-18,80.6,67.9,59.4,66.0,62.2,59.1,99,84,52,30.05,29.88,8,1,14,0.02
2013-4-19,73.9,63.4,49.4,66.3,60.1,47.7,96,89,75,29.88,29.67,15,4,22,0.71
2013-4-20,66.0,53.1,42.9,48.4,34.8,28.2,96,53,30,30.17,29.84,15,3,22,0.00
2013-4-21,63.4,54.1,44.7,42.4,37.4,33.1,72,54,39,30.32,30.17,18,5,21,0.00
2013-4-22,61.8,52.8,45.3,42.3,39.0,34.9,82,61,37,30.31,30.13,19,5,21,0.00
2013-4-23,73.2,57.0,44.3,51.9,43.4,35.1,93,62,39,30.18,30.01,12,2,16,0.00
2013-4-24,74.1,61.4,48.9,60.4,55.0,48.1,98,81,54,30.05,29.93,16,3,18,0.02
2013-4-25,73.0,61.7,51.7,59.9,44.6,31.8,96,58,27,30.19,29.96,11,2,15,0.00
2013-4-26,72.8,60.7,49.5,50.4,37.6,29.8,74,44,28,30.33,30.18,17,3,17,0.00
2013-4-27,62.8,56.5,53.4,57.2,52.4,45.1,97,87,57,30.27,30.14,6,1,11,0.38
2013-4-28,54.1,53.0,51.2,53.8,52.4,50.7,99,98,95,30.16,29.96,8,2,13,2.28
2013-4-29,74.6,61.2,53.4,62.3,57.2,53.1,99,88,60,29.97,29.83,9,1,12,0.08
2013-4-30,76.5,62.5,53.9,63.0,58.7,53.6,99,88,59,30.07,29.87,15,2,18,0.01